Beaver Falls, PA

2:15 AM EST on November 17, 2019 (GMT -0500)
Beaver County

Weather History for KBVI - October, 2019

Change the Weather History Date:

Tuesday, October 22, 2019

  Actual Average Record
Temperature  
Mean Temperature 57 °F -  
Max Temperature 64 °F 57 °F 73 °F (2000)
Min Temperature 50 °F 41 °F 32 °F (1997)
Degree Days  
Heating Degree Days 8    
Growing Degree Days 7 (Base 50)    
Moisture  
Dew Point 50 °F    
Average Humidity 78    
Maximum Humidity 100    
Minimum Humidity 54    
Precipitation  
Precipitation 0.00 in - - ()
Sea Level Pressure  
Sea Level Pressure 29.80 in    
Wind  
Wind Speed 7 mph (SSW)    
Max Wind Speed 13 mph    
Max Gust Speed 20 mph    
Visibility 9 miles    
Events Rain    
Averages and records for this station are not official NWS values.
T = Trace of Precipitation, MM = Missing Value Source: NWS Daily Summary

Daily Weather History Graph

Daily Weather History Graph

Search for Another Location

Airport or City:

Astronomy

Oct. 22, 2019 Rise Set
Actual Time 7:40 AM EDT 6:31 PM EDT
Civil Twilight 7:12 AM EDT 6:59 PM EDT
Nautical Twilight 6:40 AM EDT 7:30 PM EDT
Astronomical Twilight 6:08 AM EDT 8:02 PM EDT
Moon 12:45 AM EDT (10/22) 3:42 PM EDT (10/22)
Length of Visible Light 11h 46m
Length of Day
10h 50m
Last Quarter, 37% of the Moon is Illuminated
Oct 22
Last Quarter
Oct 27
New
Nov 4
First Quarter
Nov 12
Full
Nov 19
Last Quarter

Hourly Weather History & Observations

Time (EDT) Temp. Dew Point Humidity Pressure Visibility Wind Dir Wind Speed Gust Speed Precip Events Conditions
12:15 AM 64.4 °F 50.5 °F 61% 29.84 in 10.0 mi SE 10.4 mph - N/A   Overcast
12:16 AM 64.4 °F 50.4 °F 60% 29.84 in 10.0 mi SE 10.4 mph - N/A   Overcast
12:55 AM 64.0 °F 50.9 °F 62% 29.83 in 10.0 mi SE 9.2 mph - N/A   Mostly Cloudy
1:15 AM 63.9 °F 50.9 °F 63% 29.82 in 10.0 mi SE 8.1 mph - N/A   Overcast
1:35 AM 63.7 °F 51.1 °F 64% 29.81 in 10.0 mi SE 5.8 mph - N/A   Mostly Cloudy
1:55 AM 63.5 °F 51.4 °F 65% 29.81 in 10.0 mi SE 6.9 mph - N/A   Mostly Cloudy
1:56 AM 63.5 °F 51.4 °F 65% 29.81 in 10.0 mi SE 8.1 mph - N/A   Overcast
2:15 AM 63.5 °F 51.4 °F 65% 29.81 in 10.0 mi SE 6.9 mph - N/A   Overcast
2:35 AM 63.5 °F 51.8 °F 66% 29.79 in 10.0 mi SE 4.6 mph - N/A Rain Rain
2:36 AM 63.5 °F 51.8 °F 66% 29.79 in 10.0 mi SE 5.8 mph - N/A Rain Rain
2:55 AM 63.0 °F 52.0 °F 67% 29.80 in 10.0 mi SSE 3.5 mph - N/A   Overcast
3:15 AM 63.0 °F 52.0 °F 67% 29.80 in 10.0 mi SE 6.9 mph - N/A   Overcast
3:35 AM 63.0 °F 52.2 °F 68% 29.79 in 10.0 mi SSE 6.9 mph - N/A   Overcast
3:55 AM 63.0 °F 52.9 °F 70% 29.79 in 10.0 mi South 6.9 mph - N/A   Overcast
4:15 AM 63.7 °F 54.3 °F 72% 29.80 in 10.0 mi South 5.8 mph 17.3 mph N/A Rain Light Rain
4:16 AM 63.5 °F 54.5 °F 72% 29.80 in 10.0 mi SSW 5.8 mph - N/A Rain Rain
4:35 AM 60.8 °F 55.8 °F 83% 29.80 in 7.0 mi South 6.9 mph - N/A Rain Rain
4:55 AM 60.1 °F 57.0 °F 90% 29.81 in 5.0 mi South 6.9 mph - N/A   Drizzle
4:56 AM 60.1 °F 57.2 °F 90% 29.80 in 5.0 mi South 6.9 mph - N/A   Drizzle
5:15 AM 59.9 °F 57.2 °F 91% 29.79 in 7.0 mi South 3.5 mph - N/A   Light Drizzle
5:35 AM 59.9 °F 57.6 °F 92% 29.79 in 10.0 mi SE 3.5 mph - N/A   Overcast
5:55 AM 59.9 °F 57.7 °F 93% 29.79 in 5.0 mi Calm Calm - N/A Rain Light Rain
6:15 AM 59.7 °F 57.6 °F 93% 29.79 in 2.5 mi Calm Calm - N/A   Heavy Drizzle
6:35 AM 59.5 °F 57.6 °F 93% 29.78 in 3.0 mi ESE 3.5 mph - N/A   Drizzle
6:55 AM 59.4 °F 57.4 °F 93% 29.79 in 3.0 mi South 4.6 mph - N/A   Heavy Drizzle
6:56 AM 59.4 °F 57.6 °F 94% 29.79 in 3.0 mi SSW 4.6 mph - N/A   Heavy Drizzle
7:15 AM 59.0 °F 57.2 °F 94% 29.81 in 2.5 mi SW 10.4 mph 16.1 mph N/A Rain Heavy Rain
7:27 AM 57.2 °F 57.2 °F 100% 29.80 in 3.0 mi WSW 10.4 mph - N/A   Overcast
7:35 AM 58.3 °F 56.5 °F 94% 29.79 in 5.0 mi SW 6.9 mph - N/A Rain Rain
7:47 AM 57.2 °F 55.4 °F 94% 29.79 in 5.0 mi WSW 8.1 mph 17.3 mph N/A Rain Rain
7:55 AM 57.2 °F 55.2 °F 93% 29.78 in 5.0 mi West 11.5 mph 17.3 mph N/A Rain Rain
8:15 AM 56.5 °F 53.8 °F 91% 29.79 in 5.0 mi SW 8.1 mph - N/A Rain Rain
8:35 AM 55.9 °F 53.6 °F 92% 29.79 in 4.0 mi SW 6.9 mph - N/A Rain Rain
8:36 AM 55.8 °F 53.6 °F 92% 29.79 in 4.0 mi SW 6.9 mph - N/A Rain Light Rain
8:47 AM 55.4 °F 53.6 °F 94% 29.82 in 2.0 mi SW 5.8 mph - N/A Rain Rain
8:55 AM 55.8 °F 53.6 °F 92% 29.82 in 3.0 mi South 5.8 mph - N/A Rain Rain
8:56 AM 55.6 °F 53.6 °F 93% 29.82 in 2.5 mi South 4.6 mph - N/A Rain Rain
9:15 AM 55.8 °F 53.6 °F 92% 29.83 in 4.0 mi South 4.6 mph - N/A Rain Heavy Rain
9:16 AM 55.8 °F 53.6 °F 92% 29.83 in 4.0 mi South 4.6 mph - N/A Rain Heavy Rain
9:35 AM 55.6 °F 53.6 °F 93% 29.83 in 7.0 mi South 5.8 mph - N/A Rain Rain
9:47 AM 55.4 °F 53.6 °F 94% 29.83 in 7.0 mi SSE 4.6 mph - N/A Rain Rain
9:55 AM 55.4 °F 53.6 °F 94% 29.82 in 7.0 mi SSE 4.6 mph - N/A Rain Rain
9:56 AM 55.4 °F 53.6 °F 94% 29.82 in 7.0 mi SSE 4.6 mph - N/A Rain Rain
10:15 AM 55.4 °F 53.2 °F 92% 29.81 in 7.0 mi SSE 5.8 mph - N/A Rain Rain
10:16 AM 55.4 °F 53.2 °F 92% 29.81 in 7.0 mi SSE 5.8 mph - N/A Rain Rain
10:17 AM 55.4 °F 53.6 °F 94% 29.80 in 7.0 mi SSE 4.6 mph - N/A Rain Rain
10:35 AM 55.4 °F 53.1 °F 92% 29.78 in 10.0 mi SSE 4.6 mph - N/A Rain Light Rain
10:55 AM 55.6 °F 53.6 °F 93% 29.76 in 10.0 mi SE 5.8 mph - N/A Rain Light Rain
11:15 AM 55.8 °F 53.6 °F 92% 29.76 in 10.0 mi SE 5.8 mph - N/A   Overcast
11:16 AM 55.8 °F 53.6 °F 92% 29.76 in 10.0 mi SE 5.8 mph - N/A   Overcast
11:35 AM 55.8 °F 53.6 °F 92% 29.79 in 10.0 mi South 8.1 mph - N/A   Overcast
11:36 AM 55.8 °F 53.6 °F 92% 29.79 in 10.0 mi SSE 8.1 mph - N/A   Overcast
11:55 AM 56.3 °F 54.1 °F 92% 29.80 in 10.0 mi South 8.1 mph - N/A   Overcast
11:56 AM 56.3 °F 54.3 °F 93% 29.81 in 10.0 mi South 9.2 mph - N/A   Overcast
12:15 PM 56.5 °F 54.1 °F 92% 29.81 in 10.0 mi SSE 9.2 mph - N/A   Overcast
12:16 PM 56.5 °F 54.1 °F 92% 29.81 in 10.0 mi South 8.1 mph - N/A   Overcast
12:35 PM 56.7 °F 54.1 °F 91% 29.79 in 10.0 mi South 10.4 mph 16.1 mph N/A   Overcast
12:55 PM 56.5 °F 53.4 °F 89% 29.78 in 10.0 mi South 8.1 mph - N/A   Overcast
1:15 PM 56.7 °F 53.6 °F 89% 29.78 in 10.0 mi South 8.1 mph - N/A   Overcast
1:16 PM 56.7 °F 53.4 °F 89% 29.78 in 10.0 mi South 6.9 mph - N/A   Overcast
1:34 PM 57.2 °F 53.6 °F 88% 29.78 in 10.0 mi South 5.8 mph - N/A   Overcast
1:35 PM 56.5 °F 52.9 °F 88% 29.77 in 10.0 mi South 6.9 mph - N/A   Overcast
1:55 PM 56.7 °F 52.9 °F 87% 29.76 in 10.0 mi South 8.1 mph - N/A   Overcast
1:56 PM 56.7 °F 52.9 °F 87% 29.76 in 10.0 mi South 8.1 mph - N/A   Overcast
2:15 PM 56.3 °F 52.0 °F 85% 29.76 in 10.0 mi South 10.4 mph 16.1 mph N/A   Mostly Cloudy
2:16 PM 56.3 °F 52.0 °F 85% 29.76 in 10.0 mi South 8.1 mph 16.1 mph N/A   Mostly Cloudy
2:35 PM 56.3 °F 51.8 °F 85% 29.76 in 10.0 mi South 9.2 mph 16.1 mph N/A   Mostly Cloudy
2:47 PM 57.2 °F 51.8 °F 82% 29.76 in 10.0 mi North - - N/A   Mostly Cloudy
2:55 PM 58.6 °F 53.1 °F 82% 29.75 in 10.0 mi SSE 11.5 mph 17.3 mph N/A   Mostly Cloudy
2:56 PM 58.6 °F 52.9 °F 81% 29.76 in 10.0 mi South 11.5 mph 17.3 mph N/A   Mostly Cloudy
3:15 PM 58.8 °F 52.3 °F 79% 29.76 in 10.0 mi SSW 12.7 mph 19.6 mph N/A   Mostly Cloudy
3:16 PM 58.8 °F 52.3 °F 79% 29.75 in 10.0 mi SSW 11.5 mph 19.6 mph N/A   Mostly Cloudy
3:35 PM 61.5 °F 52.9 °F 73% 29.74 in 10.0 mi SSW 12.7 mph 18.4 mph N/A   Mostly Cloudy
3:47 PM 60.8 °F 53.6 °F 77% 29.74 in 10.0 mi SSW 9.2 mph 17.3 mph N/A   Mostly Cloudy
3:55 PM 61.9 °F 52.3 °F 71% 29.74 in 10.0 mi SSW 9.2 mph 19.6 mph N/A   Scattered Clouds
3:56 PM 62.1 °F 52.3 °F 70% 29.74 in 10.0 mi SSW 11.5 mph 19.6 mph N/A   Scattered Clouds
4:15 PM 62.1 °F 50.7 °F 66% 29.74 in 10.0 mi SSW 11.5 mph 16.1 mph N/A   Scattered Clouds
4:16 PM 61.7 °F 50.5 °F 67% 29.74 in 10.0 mi SSW 10.4 mph 16.1 mph N/A   Scattered Clouds
4:35 PM 62.8 °F 51.3 °F 66% 29.75 in 10.0 mi South 10.4 mph - N/A   Scattered Clouds
4:47 PM 60.8 °F 51.8 °F 72% 29.75 in 10.0 mi SSW 5.8 mph - N/A   Scattered Clouds
4:55 PM 59.9 °F 50.7 °F 72% 29.75 in 10.0 mi SSW 8.1 mph - N/A   Scattered Clouds
4:56 PM 59.9 °F 50.5 °F 71% 29.75 in 10.0 mi South 6.9 mph - N/A   Scattered Clouds
5:15 PM 61.7 °F 51.8 °F 70% 29.75 in 10.0 mi South 5.8 mph - N/A   Mostly Cloudy
5:35 PM 59.9 °F 50.5 °F 71% 29.76 in 10.0 mi SSW 5.8 mph 18.4 mph N/A   Mostly Cloudy
5:36 PM 60.1 °F 50.7 °F 71% 29.76 in 10.0 mi SSW 5.8 mph 18.4 mph N/A   Mostly Cloudy
5:47 PM 60.8 °F 50.0 °F 68% 29.76 in 10.0 mi SSW 5.8 mph - N/A   Mostly Cloudy
5:55 PM 59.4 °F 50.2 °F 72% 29.76 in 10.0 mi SSW 5.8 mph - N/A   Scattered Clouds
6:15 PM 58.8 °F 50.0 °F 73% 29.78 in 10.0 mi SSW 4.6 mph - N/A   Scattered Clouds
6:35 PM 57.9 °F 50.0 °F 75% 29.79 in 10.0 mi SSW 3.5 mph - N/A   Mostly Cloudy
6:47 PM 57.2 °F 50.0 °F 77% 29.79 in 10.0 mi SW 4.6 mph - N/A   Mostly Cloudy
6:55 PM 57.4 °F 46.6 °F 67% 29.80 in 10.0 mi SW 6.9 mph - N/A   Mostly Cloudy
7:15 PM 57.4 °F 41.9 °F 56% 29.81 in 10.0 mi WSW 8.1 mph - N/A   Scattered Clouds
7:35 PM 56.7 °F 40.3 °F 54% 29.81 in 10.0 mi WSW 6.9 mph - N/A   Clear
7:47 PM 55.4 °F 39.2 °F 54% 29.83 in 10.0 mi SW 4.6 mph - N/A   Clear
7:55 PM 55.6 °F 39.9 °F 56% 29.83 in 10.0 mi WSW 5.8 mph - N/A   Clear
7:56 PM 55.6 °F 40.1 °F 56% 29.83 in 10.0 mi WSW 4.6 mph - N/A   Clear
8:15 PM 55.0 °F 39.6 °F 56% 29.83 in 10.0 mi WSW 6.9 mph - N/A   Clear
8:16 PM 54.9 °F 39.6 °F 56% 29.83 in 10.0 mi WSW 8.1 mph - N/A   Clear
8:35 PM 55.0 °F 39.4 °F 56% 29.84 in 10.0 mi WSW 6.9 mph - N/A   Scattered Clouds
8:36 PM 55.0 °F 39.6 °F 56% 29.84 in 10.0 mi WSW 8.1 mph - N/A   Scattered Clouds
8:47 PM 55.4 °F 39.2 °F 54% 29.84 in 10.0 mi SW 4.6 mph - N/A   Mostly Cloudy
8:55 PM 54.9 °F 39.7 °F 57% 29.84 in 10.0 mi WSW 5.8 mph - N/A   Mostly Cloudy
8:56 PM 54.9 °F 39.7 °F 57% 29.85 in 10.0 mi WSW 6.9 mph - N/A   Mostly Cloudy
9:15 PM 54.7 °F 39.6 °F 57% 29.85 in 10.0 mi West 6.9 mph - N/A   Scattered Clouds
9:35 PM 53.8 °F 39.6 °F 59% 29.86 in 10.0 mi West 5.8 mph - N/A   Scattered Clouds
9:55 PM 52.9 °F 40.1 °F 62% 29.87 in 10.0 mi West 5.8 mph - N/A   Scattered Clouds
10:15 PM 52.9 °F 40.1 °F 62% 29.88 in 10.0 mi West 4.6 mph - N/A   Mostly Cloudy
10:35 PM 51.8 °F 40.1 °F 64% 29.88 in 10.0 mi WSW 3.5 mph - N/A   Mostly Cloudy
10:36 PM 51.8 °F 40.1 °F 64% 29.88 in 10.0 mi WSW 3.5 mph - N/A   Mostly Cloudy
10:55 PM 50.5 °F 40.1 °F 67% 29.88 in 10.0 mi WSW 4.6 mph - N/A   Scattered Clouds
10:56 PM 50.5 °F 40.1 °F 67% 29.88 in 10.0 mi SW 4.6 mph - N/A   Scattered Clouds
11:15 PM 50.5 °F 39.6 °F 66% 29.88 in 10.0 mi WSW 5.8 mph - N/A   Scattered Clouds
11:35 PM 50.9 °F 39.4 °F 65% 29.88 in 10.0 mi WSW 6.9 mph - N/A   Scattered Clouds
11:55 PM 50.2 °F 39.4 °F 66% 29.88 in 10.0 mi SW 5.8 mph - N/A   Scattered Clouds